Location: �mondeville
(49.4591°N, 1.3431°W)
Time: 13:08:08
(UTC+00:00)

NOSS 3-4 (C) - Pass Details

Date: 22 October 2019
Orbit: 908 x 1304 km, 63.4° (Epoch: 10 November)

Event Time Altitude Azimuth Distance (km) Brightness Sun altitude
Exits shadow 05:30:28 14° 262° (W) 2,354 4.9 -11.5°
Maximum altitude 05:35:23 42° 328° (NNW) 1,365 4.0 -10.7°
Drops below altitude 10° 05:41:37 10° 39° (NE) 2,838 6.4 -9.6°
Sets 05:44:32 0° 46° (NE) 3,856 7.3 -9.2°
